Regional Weather Roundup
Issued by NWS Upton, NY

Current Version | Previous Version | Text Only | Print | Product List | Glossary On
Versions: 1 2 3 4 5 6 7 8 9 10 11 12 13 14 15 16 17 18 19 20 21 22 23 24 25 26 27 28 29 30 31 32 33 34 35 36 37 38 39 40 41 42 43 44 45 46 47 48 49
000
ASUS41 KOKX 041304
RWROKX

REGIONAL WEATHER ROUNDUP
NATIONAL WEATHER SERVICE NEW YORK NY
900 AM EDT TUE AUG 04 2015

NOTE: "FAIR" INDICATES FEW OR NO CLOUDS BELOW 12,000 FEET WITH NO
SIGNIFICANT WEATHER AND/OR OBSTRUCTIONS TO VISIBILITY.

NYZ071-072-176-178-NJZ106-104-041400-
NEW YORK CITY METRO AREA


CITY           SKY/WX    TMP DP  RH WIND       PRES   REMARKS
CENTRAL PARK   CLOUDY    74  64  71 VRB5      29.87F
LAGUARDIA APRT CLOUDY    77  63  61 SW7       29.84F
KENNEDY INTL   CLOUDY    76  66  71 SW5       29.86F
NEWARK/LIBERTY PTSUNNY   76  67  73 W6        29.85F
BRNX BOT. GARD   N/A     75  63  64 S3        29.87F
TETERBORO      PTSUNNY   74  65  73 SW5       29.84F
$$

NYZ177-179-078>081-041400-
LONG ISLAND NEW YORK

CITY           SKY/WX    TMP DP  RH WIND       PRES   REMARKS
FARMINGDALE    CLOUDY    78  65  63 SW9       29.86F
ISLIP          CLOUDY    78  66  66 W7        29.83F
SHIRLEY        CLOUDY    77  68  73 S7        29.86S
WESTHAMPTON    CLOUDY    79  69  71 SW10      29.88R
MONTAUK POINT    N/A     75  70  84 CALM      29.87S
$$

NYZ052-065-067-041400-
HUDSON VALLEY

CITY           SKY/WX    TMP DP  RH WIND       PRES   REMARKS
WHITE PLAINS   CLOUDY    75  66  73 W5        29.86S
NEWBURGH       SUNNY     68  68 100 W7        29.87S
MONTGOMERY     MOSUNNY   72  67  84 SW9       29.85F
POUGHKEEPSIE   MOSUNNY   73  66  78 SW5       29.84F
ALBANY         MOSUNNY   73  65  75 CALM      29.83S
$$

NJZ001-105-106-008-010-013-015-019>022-104-041400-
NEW JERSEY

CITY           SKY/WX    TMP DP  RH WIND       PRES   REMARKS
NEWARK/LIBERTY PTSUNNY   76  67  73 W6        29.85F
TETERBORO      PTSUNNY   74  65  73 SW5       29.84F
CALDWELL       PTSUNNY   73  64  73 SW5       29.86F
MORRISTOWN     NOT AVBL
SOMERVILLE     SUNNY     73  67  81 NW3       29.85F
SUSSEX         SUNNY     71  64  78 SW6       29.86F
ANDOVER          N/A     70  65  84 VRB7      29.88F
TRENTON        SUNNY     74  68  81 W6        29.86S
MILLVILLE      MOSUNNY   82  73  74 SW6       29.89S
ATLANTIC CITY  MOSUNNY   82  74  76 SW14      29.89S
WRIGHTSTOWN    MOSUNNY   77  73  87 SW13      29.85R
TOMS RIVER       N/A     81  70  69 SW13      29.88S
BELMAR         PTSUNNY   75  66  73 SW6       29.87R
$$

PAZ047>061-062-071-041400-
EASTERN PENNSYLVANIA

CITY           SKY/WX    TMP DP  RH WIND       PRES   REMARKS
PHILADELPHIA   MOSUNNY   79  67  66 SW12      29.89R
ALLENTOWN      SUNNY     72  67  84 CALM      29.88S
SCRANTON       SUNNY     73  63  70 SW10      29.88S
$$

CTZ002-004>006-009-010-012-RIZ004-006-007-MAZ004-011-015-041400-
SOUTHERN NEW ENGLAND
 IN CT

CITY           SKY/WX    TMP DP  RH WIND       PRES   REMARKS
BRADLEY INTL   PTSUNNY   76  67  73 S7        29.84R
HARTFORD       PTSUNNY   75  68  78 S7        29.85R
DANBURY        CLOUDY    72  69  90 SW7       29.87S
WTRBRY/OXFORD  MOSUNNY   72  64  78 W3        29.90R
BRIDGEPORT     CLOUDY    74  66  76 SW9       29.86R
MERIDEN        PTSUNNY   76  69  79 S5        29.86R
NEW HAVEN      CLOUDY    73  66  78 SW6       29.86R
CHESTER        FAIR      72  68  88 W3        29.88S
GROTON         MOSUNNY   75  65  70 W10       29.86R
WILLIMANTIC    MOSUNNY   76  69  79 SW7       29.86R

 IN RI

CITY           SKY/WX    TMP DP  RH WIND       PRES   REMARKS
PROVIDENCE     MOSUNNY   72  67  84 SW5       29.87R
BLOCK ISLAND     N/A     73  70  88 SW10      29.89S
WESTERLY       MOSUNNY   72  67  84 S8        29.88R

 IN MA

CITY           SKY/WX    TMP DP  RH WIND       PRES   REMARKS
BOSTON         CLOUDY    72  67  84 S8        29.85S
WORCESTER      MOSUNNY   73  66  78 SW12      29.88R
WESTFIELD      PTSUNNY   75  65  70 S5        29.84R
PROVINCETOWN   CLOUDY    68  61  77 S7        29.87R
NANTUCKET      LGT RAIN  74  72  93 SW7       29.90F FOG
$$

ANZ330-335-338-340-345-350-353-355-041400-
COASTAL MARINE OBSERVATIONS


STATION/POSITION TIME  SKY/WX   TEMP    WIND        PRES    VSBY  WAVE
                                AIR SEA DIR/SP/G                  HT/PER
                 (UTC)          (F)     (DEG/KT/KT) (MB)    (MI)  (FT/S)
NY HARB ENTRANCE 1150            75 74  240/  8/ 10 1011.2          5/ 7
4S FIRE IS       NOT AVBL
20S FIRE ISLAND  1150            75 74  200/ 10/ 14 1010.8          7/ 8
GREAT SOUTH BAY  NOT AVBL
23SW MTP         1250            76 74  220/ 12/ 16 1010.5          7/ 8
HUDSON CANYON    NOT AVBL
KINGS POINT      1200            72 71  220/  7/  8 1010.5
EXECUTION ROCKS  1200            72     200/  6/  6   N/A
CENTRAL LI SOUND NOT AVBL
EASTERN LI SOUND 1200            72 68  240/ 10/ 14   N/A
ROBBINS REEF     1200            72     270/  5/  7 1010.3
$$


>>>>>>>>>>>>>>>>>>>>>>>>>>>> KEY <<<<<<<<<<<<<<<<<<<<<<<<<<<
>                                                          <
>     SKY/WX - SKY CONDITION/PRESENT WEATHER               <
>     TMP    - TEMPERATURE IN FAHRENHEIT                   <
>     DP     - DEWPOINT IN FAHRENHEIT                      <
>     RH     - RELATIVE HUMIDITY IN PERCENT                <
>     WIND   - DIRECTION AND SPEED IN MPH                  <
>     PRES   - MEAN SEA LEVEL PRESSURE IN INCHES OF HG     <
>     WCI    - WIND CHILL INDEX                            <
>     VSB    - VISIBILITY IN MILES                         <
>     HX     - HEAT INDEX                                  <
>     TC     - TEMPERATURE IN CELSIUS                      <
>     VRB    - VARIABLE WIND DIRECTION                     <
>                                                          <
>>>>>>>>>>>>>>>>>>>>>>>>>>>> KEY <<<<<<<<<<<<<<<<<<<<<<<<<<<




USA.gov is the U.S. government's official web portal to all federal, state and local government web resources and services.